User: anonymous   Login
Location: Sceptre
(50.8619°N, 109.2670°W)
Time: 09:59:26
(UTC+00:00)
Language:

First-Move - Orbit

View from above orbital plane
View from above orbital plane
View from above satellite
View from above satellite

Ground track
Ground track

The orbit data is extracted from the following two-line orbital elements,

1 39439U 13066Z   22180.87885896  .00002066  00000-0  24427-3 0  9992
2 39439  97.6372 154.2012 0062893   0.9513 359.1810 14.84294878463897
Epoch (UTC): 29 June 2022 21:05:33
Eccentricity: 0.0062893
inclination: 97.6372°
perigee height: 572 km
apogee height: 660 km
right ascension of ascending node: 154.2012°
argument of perigee: 0.9513°
revolutions per day: 14.84294878
mean anomaly at epoch: 359.1810°
orbit number at epoch: 46389

The dashed part of the orbit path shows where the satellite is in the earth's shadow,  

DLR